Livingston, MT

10:04 AM MDT on June 24, 2018 (GMT -0600)
Mission

Weather History for KLVM - November, 2017

Change the Weather History Date:

Tuesday, November 21, 2017

  Actual Average Record
Temperature  
Mean Temperature 40 °F 32 °F  
Max Temperature 52 °F 41 °F 73 °F (2002)
Min Temperature 28 °F 22 °F -12 °F (1977)
Degree Days  
Heating Degree Days 25 33  
Month to date heating degree days 727 614  
Since 1 July heating degree days 1657 1642  
Cooling Degree Days 0 0  
Month to date cooling degree days 0 0  
Year to date cooling degree days 397 230  
Moisture  
Dew Point 32 °F    
Average Humidity 75    
Maximum Humidity 100    
Minimum Humidity 50    
Precipitation  
Precipitation T in 0.02 in 0.27 in (1986)
Month to date precipitation 1.59 0.41  
Year to date precipitation 15.73 14.11  
Sea Level Pressure  
Sea Level Pressure 30.19 in    
Wind  
Wind Speed 18 mph (WNW)    
Max Wind Speed 45 mph    
Max Gust Speed 55 mph    
Visibility 8 miles    
Events Fog    
T = Trace of Precipitation, MM = Missing Value Source: NWS Daily Summary

Daily Weather History Graph

Daily Weather History Graph

Search for Another Location

Airport or City:

Astronomy

Nov. 21, 2017 Rise Set
Actual Time 7:30 AM MST 4:45 PM MST
Civil Twilight 6:57 AM MST 5:17 PM MST
Nautical Twilight 6:20 AM MST 5:54 PM MST
Astronomical Twilight 5:45 AM MST 6:29 PM MST
Moon 10:06 AM MST (11/21) 7:29 PM MST (11/21)
Length of Visible Light 10h 20m
Length of Day
9h 15m
Waxing Crescent, 10% of the Moon is Illuminated
Nov 21
Waxing Crescent
Nov 26
First Quarter
Dec 3
Full
Dec 10
Last Quarter
Dec 17
New

Hourly Weather History & Observations

Time (MST) Temp. Windchill Dew Point Humidity Pressure Visibility Wind Dir Wind Speed Gust Speed Precip Events Conditions
12:53 AM 37.0 °F 32.4 °F 36.0 °F 96% 30.09 in 10.0 mi West 5.8 mph - 0.00 in   Mostly Cloudy
1:38 AM 30.9 °F 20.2 °F 30.0 °F 96% 30.09 in 10.0 mi East 15.0 mph - N/A   Mostly Cloudy
1:53 AM 30.0 °F 19.5 °F 30.0 °F 100% 30.16 in 10.0 mi East 13.8 mph - N/A   Overcast
2:01 AM 30.0 °F 20.5 °F 30.0 °F 100% 30.11 in 10.0 mi East 11.5 mph - N/A   Overcast
2:53 AM 28.9 °F 18.2 °F 28.9 °F 100% 30.22 in 10.0 mi East 13.8 mph - N/A   Mostly Cloudy
3:53 AM 28.9 °F 20.4 °F 28.9 °F 100% 30.24 in 10.0 mi East 9.2 mph - N/A   Overcast
4:53 AM 28.9 °F 21.1 °F 28.9 °F 100% 30.26 in 10.0 mi East 8.1 mph - N/A   Overcast
5:53 AM 28.0 °F 22.8 °F 28.0 °F 100% 30.27 in 3.0 mi ESE 4.6 mph - N/A   Overcast
6:00 AM 28.0 °F 22.8 °F 28.0 °F 100% 30.20 in 1.8 mi ESE 4.6 mph - N/A   Overcast
6:53 AM 28.9 °F - 28.0 °F 96% 30.27 in 1.0 mi Calm Calm - N/A   Overcast
7:03 AM 28.9 °F - 28.0 °F 96% 30.21 in 0.8 mi Calm Calm - N/A   Mist
7:53 AM 28.9 °F 21.9 °F 28.9 °F 100% 30.28 in 0.2 mi NW 6.9 mph - N/A Fog Light Freezing Fog
8:53 AM 28.0 °F 18.6 °F 28.0 °F 100% 30.28 in 0.2 mi NW 10.4 mph - N/A Fog Light Freezing Fog
9:53 AM 28.9 °F 16.9 °F 28.9 °F 100% 30.28 in 0.2 mi NW 17.3 mph - N/A Fog Light Freezing Fog
10:36 AM 30.9 °F 19.8 °F 30.9 °F 100% 30.21 in 2.0 mi NNW 16.1 mph - N/A   Mostly Cloudy
10:42 AM 30.9 °F 19.8 °F 30.9 °F 100% 30.21 in 10.0 mi NW 16.1 mph - N/A   Scattered Clouds
10:53 AM 32.0 °F 21.6 °F 32.0 °F 100% 30.27 in 10.0 mi NNW 15.0 mph - N/A   Partly Cloudy
11:53 AM 37.9 °F 29.6 °F 34.0 °F 86% 30.24 in 10.0 mi NNW 13.8 mph - N/A   Clear
12:42 PM 48.9 °F - 33.1 °F 54% 30.16 in 10.0 mi WSW 25.3 mph 31.1 mph N/A   Clear
12:53 PM 48.9 °F - 30.0 °F 48% 30.17 in 10.0 mi WSW 19.6 mph 29.9 mph N/A   Clear
1:49 PM 44.6 °F 38.1 °F 32.0 °F 61% 30.15 in 10.0 mi NW 13.8 mph 28.8 mph N/A   Clear
1:53 PM 45.0 °F 37.9 °F 32.0 °F 60% 30.19 in 10.0 mi NNW 16.1 mph 28.8 mph N/A   Clear
2:00 PM 44.1 °F 37.4 °F 32.0 °F 63% 30.14 in 10.0 mi NNW 13.8 mph - N/A   Clear
2:53 PM 42.1 °F 33.9 °F 30.9 °F 65% 30.22 in 10.0 mi NNW 17.3 mph - N/A   Clear
3:53 PM 42.1 °F 34.9 °F 28.9 °F 60% 30.21 in 10.0 mi NNW 13.8 mph 26.5 mph N/A   Scattered Clouds
4:53 PM 50.0 °F - 32.0 °F 50% 30.19 in 10.0 mi WSW 28.8 mph 40.3 mph N/A   Mostly Cloudy
5:53 PM 48.9 °F - 34.0 °F 56% 30.18 in 10.0 mi WSW 20.7 mph 38.0 mph 0.00 in   Overcast
6:53 PM 46.9 °F - 37.0 °F 68% 30.17 in 10.0 mi SW 35.7 mph 49.5 mph 0.00 in   Overcast
7:53 PM 46.9 °F - 37.0 °F 68% 30.17 in 10.0 mi SW 36.8 mph 54.1 mph N/A   Scattered Clouds
8:53 PM 48.0 °F - 37.0 °F 66% 30.15 in 10.0 mi WSW 23.0 mph 38.0 mph N/A   Clear
9:53 PM 50.0 °F - 37.0 °F 61% 30.09 in 10.0 mi SW 39.1 mph 55.2 mph N/A   Clear
10:53 PM 50.0 °F - 37.0 °F 61% 30.13 in 10.0 mi SW 34.5 mph 49.5 mph N/A   Clear
11:53 PM 51.1 °F - 37.9 °F 61% 30.08 in 10.0 mi SW 31.1 mph 41.4 mph N/A   Clear